Smithfield - 24 Hour Table
Date & TimeSolar
Radiation
(W/m²)
Wind
Speed
(mph)
Wind
Direction
(degrees)
Air
Temperature
(°F)
Relative
Humidity
(%)
Precipitation
(inches)
2019/10/19 12:00 179 3.1 186 46.6 50 0.00
2019/10/19 11:00 120 3.4 40 41.7 65 0.00
2019/10/19 10:00 160 2.8 332 39.1 74 0.00
2019/10/19 09:00 157 2.2 246 40.3 79 0.00
2019/10/19 08:00 73 2.9 110 36.0 68 0.00
2019/10/19 07:00 3 3.0 76 35.1 82 0.00
2019/10/19 06:00 0 3.2 133 36.5 82 0.00
2019/10/19 05:00 0 4.1 177 36.7 87 0.00
2019/10/19 04:00 0 2.7 158 37.4 84 0.00
2019/10/19 03:00 0 1.9 53 37.8 87 0.00
2019/10/19 02:00 0 2.3 315 38.6 82 0.00
2019/10/19 01:00 0 1.6 0 40.0 75 0.00
2019/10/19 00:00 0 1.9 29 39.8 70 0.00
2019/10/18 23:00 0 2.7 63 39.2 68 0.00
2019/10/18 22:00 0 2.2 40 40.9 65 0.00
2019/10/18 21:00 0 4.2 58 41.2 62 0.00
2019/10/18 20:00 0 4.4 79 42.1 63 0.00
2019/10/18 19:00 0 3.4 66 44.1 60 0.00
2019/10/18 18:00 7 2.9 139 46.0 57 0.00
2019/10/18 17:00 50 5.5 219 47.2 53 0.00
2019/10/18 16:00 151 5.5 224 48.3 48 0.00
2019/10/18 15:00 190 6.3 238 48.2 45 0.00
2019/10/18 14:00 313 5.9 242 49.1 46 0.00
2019/10/18 13:00 548 3.8 128 49.0 47 0.00